| time (UTC) | temp F | wind direction | speed MPH | gust MPH | rain 1hr in | rain 24hr in | rain mn in | humidity % | barometer mb |
| 20260508081403 | 34 | 289 | 2.0 | 4.0 | 0.00 | 0.00 | 0.00 | 80 | 1005.6 |
| 20260508075900 | 34 | 291 | 0.0 | 0.0 | 0.00 | 0.00 | 0.00 | 79 | 1005.6 |
| 20260508074213 | 34 | 296 | 0.0 | 0.0 | 0.00 | 0.00 | 0.00 | 78 | 1005.7 |
| 20260508072407 | 35 | 296 | 0.0 | 0.0 | 0.00 | 0.00 | 0.00 | 77 | 1005.7 |
| 20260508070905 | 35 | 296 | 0.0 | 0.0 | 0.00 | 0.00 | 0.00 | 77 | 1005.7 |
| 20260508064910 | 37 | 296 | 0.0 | 0.0 | 0.00 | 0.00 | 0.00 | 73 | 1005.6 |
| 20260508063358 | 36 | 296 | 0.0 | 0.0 | 0.00 | 0.00 | 0.00 | 74 | 1005.8 |
| 20260508061858 | 38 | 296 | 0.0 | 0.0 | 0.00 | 0.00 | 0.00 | 70 | 1005.9 |
| 20260508055921 | 40 | 296 | 2.0 | 3.0 | 0.00 | 0.00 | 0.00 | 67 | 1005.8 |
| 20260508054356 | 41 | 296 | 2.0 | 3.0 | 0.00 | 0.00 | 0.00 | 65 | 1005.9 |
| 20260508052400 | 39 | 275 | 1.0 | 3.0 | 0.00 | 0.00 | 0.00 | 67 | 1005.9 |
| 20260508050408 | 41 | 275 | 2.0 | 4.0 | 0.00 | 0.00 | 0.00 | 62 | 1005.8 |
| 20260508044406 | 42 | 271 | 2.0 | 3.0 | 0.00 | 0.00 | 0.00 | 58 | 1005.9 |
| 20260508042405 | 44 | 273 | 1.0 | 4.0 | 0.00 | 0.00 | 0.00 | 55 | 1006.0 |
| 20260508040903 | 45 | 231 | 4.0 | 7.0 | 0.00 | 0.00 | 0.00 | 51 | 1006.1 |
| 20260508034913 | 46 | 213 | 4.0 | 5.0 | 0.00 | 0.00 | 0.00 | 49 | 1005.9 |
| 20260508033408 | 46 | 205 | 2.0 | 4.0 | 0.00 | 0.00 | 0.00 | 53 | 1005.9 |
| 20260508031412 | 45 | 209 | 1.0 | 3.0 | 0.00 | 0.00 | 0.00 | 53 | 1005.7 |
| 20260508025908 | 46 | 198 | 2.0 | 4.0 | 0.00 | 0.00 | 0.00 | 47 | 1005.5 |
| 20260508024352 | 46 | 190 | 2.0 | 4.0 | 0.00 | 0.00 | 0.00 | 44 | 1005.5 |
| 20260508022409 | 49 | 232 | 2.0 | 3.0 | 0.00 | 0.00 | 0.00 | 42 | 1005.5 |
| 20260508020405 | 54 | 238 | 0.0 | 3.0 | 0.00 | 0.00 | 0.00 | 36 | 1005.3 |
| 20260508014412 | 56 | 253 | 2.0 | 5.0 | 0.00 | 0.00 | 0.00 | 34 | 1005.3 |
| 20260508012413 | 56 | 256 | 4.0 | 9.0 | 0.00 | 0.00 | 0.00 | 35 | 1005.4 |
| 20260508010853 | 56 | 259 | 3.0 | 8.0 | 0.00 | 0.00 | 0.00 | 31 | 1005.7 |
| 20260508004911 | 56 | 278 | 4.0 | 8.0 | 0.00 | 0.00 | 0.00 | 31 | 1005.9 |
| 20260508002917 | 57 | 307 | 7.0 | 13.0 | 0.00 | 0.00 | 0.00 | 30 | 1006.1 |
| 20260508000910 | 55 | 238 | 7.0 | 11.0 | 0.00 | 0.00 | 0.00 | 34 | 1006.4 |
| 20260507234910 | 56 | 285 | 23.0 | 30.0 | 0.00 | 0.00 | 0.00 | 35 | 1006.5 |
| 20260507232921 | 57 | 259 | 12.0 | 24.0 | 0.00 | 0.00 | 0.00 | 33 | 1006.5 |
| 20260507230911 | 57 | 270 | 9.0 | 18.0 | 0.00 | 0.00 | 0.00 | 30 | 1006.5 |
| 20260507224906 | 59 | 259 | 9.0 | 19.0 | 0.00 | 0.00 | 0.00 | 29 | 1006.6 |
| 20260507222908 | 57 | 267 | 13.0 | 21.0 | 0.00 | 0.00 | 0.00 | 31 | 1006.6 |
| 20260507220909 | 59 | 267 | 12.0 | 23.0 | 0.00 | 0.00 | 0.00 | 30 | 1006.8 |
| 20260507214915 | 58 | 229 | 11.0 | 15.0 | 0.00 | 0.00 | 0.00 | 30 | 1007.1 |
| 20260507212919 | 56 | 264 | 10.0 | 14.0 | 0.00 | 0.00 | 0.00 | 30 | 1007.5 |
| 20260507211410 | 57 | 268 | 12.0 | 20.0 | 0.00 | 0.00 | 0.00 | 30 | 1007.7 |
| 20260507205910 | 56 | 274 | 7.0 | 17.0 | 0.00 | 0.00 | 0.00 | 28 | 1008.0 |
| 20260507203903 | 55 | 225 | 10.0 | 16.0 | 0.00 | 0.00 | 0.00 | 29 | 1007.9 |
| 20260507202401 | 55 | 269 | 8.0 | 15.0 | 0.00 | 0.00 | 0.00 | 29 | 1008.2 |
| 20260507200404 | 55 | 279 | 10.0 | 14.0 | 0.00 | 0.00 | 0.00 | 31 | 1008.3 |
| 20260507194859 | 55 | 306 | 8.0 | 15.0 | 0.00 | 0.00 | 0.00 | 28 | 1008.5 |
| 20260507192913 | 55 | 306 | 9.0 | 18.0 | 0.00 | 0.00 | 0.00 | 28 | 1008.6 |
| 20260507191405 | 54 | 263 | 8.0 | 13.0 | 0.00 | 0.00 | 0.00 | 31 | 1008.7 |
| 20260507185400 | 55 | 298 | 9.0 | 20.0 | 0.00 | 0.00 | 0.00 | 28 | 1009.0 |
| 20260507183852 | 54 | 260 | 8.0 | 18.0 | 0.00 | 0.00 | 0.00 | 33 | 1009.0 |
| 20260507181905 | 54 | 336 | 8.0 | 16.0 | 0.00 | 0.00 | 0.00 | 30 | 1009.4 |
| 20260507180404 | 52 | 5 | 8.0 | 16.0 | 0.00 | 0.00 | 0.00 | 35 | 1009.5 |
| 20260507174900 | 52 | 288 | 7.0 | 19.0 | 0.00 | 0.00 | 0.00 | 34 | 1009.7 |
| 20260507172911 | 52 | 322 | 3.0 | 18.0 | 0.00 | 0.00 | 0.00 | 33 | 1009.9 |
| 20260507171403 | 51 | 332 | 8.0 | 15.0 | 0.00 | 0.00 | 0.00 | 34 | 1010.1 |
| 20260507165400 | 50 | 288 | 10.0 | 15.0 | 0.00 | 0.00 | 0.00 | 35 | 1010.2 |
| 20260507163407 | 48 | 263 | 7.0 | 14.0 | 0.00 | 0.00 | 0.00 | 40 | 1010.3 |
| 20260507161414 | 48 | 300 | 6.0 | 15.0 | 0.00 | 0.00 | 0.00 | 36 | 1010.5 |
| 20260507155402 | 47 | 260 | 10.0 | 16.0 | 0.00 | 0.00 | 0.00 | 44 | 1010.5 |
| 20260507153407 | 46 | 264 | 8.0 | 15.0 | 0.00 | 0.00 | 0.00 | 45 | 1010.7 |
| 20260507151858 | 45 | 281 | 11.0 | 16.0 | 0.00 | 0.00 | 0.00 | 47 | 1010.8 |
| 20260507150354 | 44 | 252 | 9.0 | 16.0 | 0.00 | 0.00 | 0.00 | 50 | 1010.8 |
| 20260507144407 | 43 | 238 | 11.0 | 15.0 | 0.00 | 0.00 | 0.00 | 52 | 1010.8 |
| 20260507142402 | 41 | 263 | 7.0 | 13.0 | 0.00 | 0.00 | 0.00 | 58 | 1010.8 |
| 20260507140408 | 39 | 246 | 6.0 | 10.0 | 0.00 | 0.00 | 0.00 | 63 | 1010.8 |
| 20260507134409 | 36 | 246 | 5.0 | 9.0 | 0.00 | 0.00 | 0.00 | 71 | 1010.6 |
| 20260507132903 | 34 | 229 | 4.0 | 8.0 | 0.00 | 0.00 | 0.00 | 75 | 1010.7 |
| 20260507130910 | 30 | 234 | 3.0 | 7.0 | 0.00 | 0.00 | 0.00 | 86 | 1010.6 |
| 20260507125405 | 27 | 217 | 2.0 | 4.0 | 0.00 | 0.00 | 0.00 | 90 | 1010.6 |
| 20260507123857 | 25 | 213 | 2.0 | 4.0 | 0.00 | 0.00 | 0.00 | 91 | 1010.5 |
| 20260507121911 | 23 | 212 | 0.0 | 2.0 | 0.00 | 0.00 | 0.00 | 91 | 1010.3 |
| 20260507115858 | 22 | 212 | 0.0 | 0.0 | 0.00 | 0.00 | 0.00 | 90 | 1010.3 |
| 20260507113910 | 22 | 211 | 0.0 | 0.0 | 0.00 | 0.00 | 0.00 | 91 | 1010.3 |
| 20260507112407 | 22 | 211 | 1.0 | 3.0 | 0.00 | 0.00 | 0.00 | 91 | 1010.2 |
| 20260507110858 | 21 | 211 | 1.0 | 3.0 | 0.00 | 0.00 | 0.00 | 91 | 1010.2 |
| 20260507104858 | 20 | 211 | 2.0 | 3.0 | 0.00 | 0.00 | 0.00 | 92 | 1010.2 |
| 20260507102854 | 20 | 211 | 2.0 | 4.0 | 0.00 | 0.00 | 0.00 | 91 | 1010.3 |
| 20260507101352 | 21 | 211 | 2.0 | 4.0 | 0.00 | 0.00 | 0.00 | 90 | 1010.4 |
| 20260507095410 | 23 | 217 | 2.0 | 3.0 | 0.00 | 0.00 | 0.00 | 92 | 1010.4 |
| 20260507093405 | 22 | 218 | 1.0 | 3.0 | 0.00 | 0.00 | 0.00 | 92 | 1010.6 |
| 20260507091905 | 21 | 218 | 0.0 | 3.0 | 0.00 | 0.00 | 0.00 | 92 | 1010.6 |
| 20260507085905 | 23 | 263 | 2.0 | 3.0 | 0.00 | 0.00 | 0.00 | 91 | 1010.7 |
| 20260507084359 | 24 | 263 | 0.0 | 0.0 | 0.00 | 0.00 | 0.00 | 92 | 1010.6 |